Location: Deep Valley
(39.7548°N, 80.4695°W)
Time: 22:29:57
(UTC+00:00)

ISS - Visible Passes

Search period start: 18 June 2021 00:00
Search period end: 28 June 2021 00:00
Orbit: 417 x 422 km, 51.6° (Epoch: 18 June)

Date Brightness Start Highest point End Pass type
(mag) Time Alt. Az. Time Alt. Az. Time Alt. Az.
24 Jun -1.5 09:10:13 10° S 09:12:33 18° SE 09:14:53 10° E visible
25 Jun -0.9 08:25:11 10° SE 08:25:18 10° SE 08:25:23 10° SE visible
26 Jun -3.3 09:10:53 10° SW 09:14:10 54° SE 09:17:29 10° ENE visible
27 Jun -2.5 08:25:17 21° S 08:26:48 30° SE 08:29:48 10° ENE visible
